Location: Home
(42.5358°N, 72.7383°W)
Time: 10:58:11
(UTC-05:00)

Vanguard 2 Rocket - Pass Details

Date: 02 December 2021
Orbit: 553 x 3325 km, 32.9° (Epoch: 23 January)

Event Time Altitude Azimuth Distance (km) Brightness Sun altitude
Rises 18:46:26 0° 240° (WSW) 3,504 11.0 -26.6°
Reaches altitude 10° 18:48:39 10° 233° (SW) 2,802 10.1 -27.0°
Maximum altitude 18:55:08 43° 163° (SSE) 1,933 8.3 -28.2°
Enters shadow 18:57:25 38° 133° (SE) 2,280 8.5 -28.6°
Drops below altitude 10° 19:06:12 10° 99° (E) 4,738 - -30.2°
Sets 19:11:09 0° 94° (E) 6,199 - -31.1°
